{"data":{"norad_id":67533,"intl_designator":"2026-014B","name":"STARLINK-36417","alt_names":[],"object_type":"PAYLOAD","status":"ACTIVE","operator":null,"country":"US","launch_date":"2026-01-22","launch_site_code":"AFWTR","launch_vehicle":null,"mission":null,"orbit_class":"UNKNOWN","rcs_meters":null,"size_class":null,"mass_kg":null,"dimensions":null,"purposes":["comms"],"wikipedia_slug":null,"has_3d_model":false,"image_url":null,"decayed_at":null,"tle_current":{"epoch":"2026-05-25T02:52:00.650208Z","epoch_age_seconds":68030,"freshness":"FRESH","line1":"1 67533U 26014B   26145.11945197  .00023657  00000+0  73226-3 0  9997","line2":"2 67533  97.2861  32.1213 0001385  86.1887 273.9514 15.33468447 20497","mean_motion":15.33468447,"eccentricity":0.0001385,"inclination_deg":97.2861,"raan_deg":32.1213,"arg_perigee_deg":86.1887,"mean_anomaly_deg":273.9514,"bstar":0.00073226,"rev_number":2049,"period_min":93.904768814588,"perigee_km":464.52557354911,"apogee_km":466.42125363368,"semimajor_km":6843.6104135914,"source":"CELESTRAK","updated_at":"2026-05-25T13:38:21.606038Z"}}}